Regional Weather Roundup
Issued by NWS

Home | Current Version | Previous Version | Graphics & Text | Print | Product List | Glossary On
Versions: 1 2 3 4 5 6 7 8 9 10 11 12 13 14 15 16 17 18 19 20 21 22 23 24 25 26 27 28 29 30 31 32 33 34 35 36 37 38 39 40 41 42 43 44 45 46 47 48 49 50
000
ASUS43 KLOT 060200
RWRIL

ILLINOIS REGIONAL WEATHER ROUNDUP
NATIONAL WEATHER SERVICE CHICAGO/ROMEOVILLE IL
800 PM CST THU MAR 05 2015

NOTE: "FAIR" INDICATES FEW OR NO CLOUDS BELOW 12,000 FEET WITH NO
SIGNIFICANT WEATHER AND/OR OBSTRUCTIONS TO VISIBILITY.

* THESE STATIONS ARE NOT UNDER NWS QUALITY CONTROL. THEY ALSO MAY NOT
  REPORT WEATHER SUCH AS PRECIPITATION OR FOG.

ILZ001-002-007-009-015-016-024-060300-
NORTHWEST ILLINOIS

CITY           SKY/WX    TMP DP  RH WIND       PRES   REMARKS
MOLINE         PTCLDY     6  -3  66 SW3       30.56S
STERLING*      MOCLDY     5  -4  66 W3        30.54F
$$

ILZ003-004-008-010-011-017-018-060300-
NORTH CENTRAL ILLINOIS

CITY           SKY/WX    TMP DP  RH WIND       PRES   REMARKS
ROCKFORD       MOCLDY     7  -4  60 SW5       30.53S WCI  -2
DE KALB*       PTCLDY     6  -2  69 SW5       30.52S WCI  -3
$$

ILZ005-006-012>014-019>023-060300-
NORTHEAST ILLINOIS

CITY           SKY/WX    TMP DP  RH WIND       PRES   REMARKS
CHICAGO-OHARE  CLEAR      9  -2  61 W7        30.53S WCI  -2
CHICAGO-MIDWAY CLEAR     13  -1  54 W7        30.55S WCI   3
AURORA         PTCLDY     8  -3  61 SW5       30.54S WCI   0
WAUKEGAN       PTCLDY     7  -5  57 CALM      30.51S
DUPAGE AIRPORT PTCLDY     6  -4  63 SW6       30.53R WCI  -4
WHEELING       CLEAR     11  -3  53 W5        30.55S WCI   3
NORTHERLY ISL    N/A     14  -1  51 SW7         N/A  WCI   4
$$

LMZ740>746-060300-
SOUTHERN LAKE MICHIGAN

STATION/POSITION SKY/WX   TEMP    WIND        PRES    VSBY  WAVE
                          AIR SEA DIR/SP/G                  HT/PER
                          (F)     (DEG/KT/KT) (MB)    (MI)  (FT/S)
WAUKEGAN HARBOR            12                   N/A
HARRISON CRIB              15     270/ 11/ 14   N/A
BURNHAM HARBOR             15     270/  9/ 11   N/A
CALUMET HARBOR             13     250/  8/ 10 1032.9R
MICHIGAN CITY              14      CALM  /  1   N/A
$$

ILZ025>027-034>036-040-047-049-050-058-095>099-060300-
WEST-CENTRAL ILLINOIS

CITY           SKY/WX    TMP DP  RH WIND       PRES   REMARKS
QUINCY         PTCLDY    14   1  56 SE6       30.56S WCI   5
$$

ILZ028>032-037-038-041>044-048-051>054-059>061-060300-
CENTRAL ILLINOIS

CITY           SKY/WX    TMP DP  RH WIND       PRES   REMARKS
DECATUR        MOCLDY     9  -2  61 CALM      30.58S
PEORIA         MOCLDY    10  -2  58 W3        30.59R
LINCOLN*       MOCLDY    12   2  64 CALM      30.61S
SPRINGFIELD    MOCLDY     8  -2  63 CALM      30.60R
TAYLORVILLE    NOT AVBL
$$

ILZ033-039-045-046-055>057-062-063-060300-
EAST-CENTRAL ILLINOIS

CITY           SKY/WX    TMP DP  RH WIND       PRES   REMARKS
CHAMPAIGN      MOCLDY     6  -2  69 CALM      30.58R
MATTOON        FAIR       6  -3  66 NW3       30.58R
$$

ILZ079-100>102-060300-
SOUTHWEST ILLINOIS

CITY           SKY/WX    TMP DP  RH WIND       PRES   REMARKS
BELLEVILLE     PTCLDY    17   7  63 E5        30.59S WCI  10
CAHOKIA*       CLEAR     21   7  54 N6        30.60R WCI  13
$$

ILZ064>066-069>071-074>076-080>082-084>086-088>090-092>094-060300-
SOUTH-CENTRAL ILLINOIS

CITY           SKY/WX    TMP DP  RH WIND       PRES   REMARKS
CARBONDALE     PTCLDY     9   4  80 E3        30.60R
MT. VERNON     PTCLDY    12   1  62 CALM      30.60R
$$

ILZ067-068-072-073-078-083-087-091-060300-
SOUTHEAST ILLINOIS

CITY           SKY/WX    TMP DP  RH WIND       PRES   REMARKS
LAWRENCEVILLE  PTCLDY    12   3  67 N7        30.61R WCI   1
$$

ABBREVIATIONS USED IN REMARKS
   TC - TEMPERATURE IN CELSIUS
  WCI - WIND CHILL INDEX
   HX - HEAT INDEX
  VSB - VISIBILITY
$$



USA.gov is the U.S. government's official web portal to all federal, state and local government web resources and services.